[[{"header":{"parameterUnit":"m.s-1","parameterCategory":1,"la1":30.2991,"la2":30.254,"lo1":-89.0895,"lo2":-89.0444,"dy":0.0017,"dx":0.0017,"nx":28,"ny":28,"refTime":"2024-09-01T03:00:00:Z","depth":0,"parameterNumber":2,"parameterNumberName":"U-component_of_WINDS"},"data":[0,0,0,0,0,0,0,0,0,0,0,0,0,0,0,0,0,0,0,0,0,0,0,0,0,0,0,0,0,0,0,0,0,0,0,0,0,0,0,0,0,0,0,0,0,0,0,0,0,0,0,0,0,0,0,0,0,0,-2.5207,-2.5207,0,-2.5241,-2.5241,-2.5242,-2.5117,-2.5113,-2.5109,-2.5105,-2.5145,-2.515,-2.5154,0,0,0,0,0,0,0,0,0,0,0,0,0,-2.5037,-2.5041,-2.5206,-2.5207,-2.5207,-2.5241,-2.5241,-2.5242,-2.5117,-2.5113,-2.5108,-2.5104,-2.5144,-2.5149,-2.5155,0,0,0,0,0,0,0,0,0,0,0,0,0,-2.5096,-2.5042,-2.5206,-2.5149,-2.5144,-2.5241,-2.5241,-2.5242,-2.5118,-2.5112,-2.5107,-2.5102,-2.5142,-2.5149,-2.5156,-2.5311,0,0,-2.5176,-2.5179,0,0,0,0,0,0,0,0,-2.5092,-2.5102,-2.5157,-2.5153,-2.5148,-2.5169,-2.5196,-2.5265,-2.512,-2.5128,-2.5105,-2.5099,-2.5158,-2.5163,-2.5182,-2.5312,-2.5314,-2.5177,-2.5181,-2.5184,-2.5186,0,0,0,0,0,0,0,-2.5089,-2.51,-2.522,-2.5158,-2.5153,-2.5123,-2.5125,-2.5209,-2.5175,-2.5127,-2.5118,-2.5124,-2.5154,-2.5176,-2.5182,-2.5315,-2.5177,-2.5183,-2.5187,-2.519,-2.5577,-2.5583,0,0,0,0,0,0,-2.5091,-2.5097,-2.5219,-2.5221,-2.5106,-2.5131,-2.5133,-2.5168,-2.5173,-2.5168,-2.5128,-2.5118,-2.5167,-2.5174,-2.5183,-2.5367,-2.5184,-2.5191,-2.5194,-2.5571,-2.5578,-2.5585,0,0,0,0,0,0,-2.5088,-2.5103,-2.5218,-2.5157,-2.5169,-2.514,-2.518,-2.5171,-2.5193,-2.5174,-2.5168,-2.5156,-2.5163,-2.5173,-2.528,-2.5367,-2.5194,-2.52,-2.5564,-2.5573,-2.5582,-2.5736,0,0,0,0,0,0,-2.5084,-2.5103,-2.516,-2.5159,-2.5173,-2.5313,-2.5185,-2.5176,-2.5204,-2.5191,-2.5199,-2.5195,-2.5159,-2.5271,-2.5287,-2.5373,-2.5205,-2.5556,-2.5568,-2.5579,-2.5723,-2.5749,-2.5772,0,0,0,0,0,-2.5078,-2.5203,-2.5164,-2.5179,-2.5244,-2.5318,-2.5326,-2.5282,-2.5212,-2.527,-2.5259,-2.5194,-2.5354,-2.5283,-2.53,-2.539,-2.555,-2.5564,-2.5578,-2.5712,-2.5744,-2.5771,0,0,0,0,0,0,-2.5217,-2.5202,-2.5158,-2.5286,-2.5304,-2.5297,-2.5369,-2.5317,-2.5357,-2.5343,-2.5287,-2.529,-2.5407,-2.5408,-2.5329,-2.5541,-2.544,-2.5458,-2.5537,-2.5567,-2.5591,-2.559,-2.5211,0,0,0,0,0,-2.5262,-2.5322,-2.5306,-2.542,-2.5432,-2.5399,-2.543,-2.5394,-2.5412,-2.5419,-2.5415,-2.5436,-2.5491,-2.5528,-2.5578,-2.5722,-2.5724,-2.5792,-2.5817,-2.5837,-2.5854,-2.5933,-2.5965,-2.5631,-2.5631,-2.563,0,0,-2.5356,-2.5355,-2.5397,-2.5448,-2.5458,-2.5524,-2.5407,-2.5481,-2.553,-2.5431,-2.5532,-2.553,-2.5549,-2.5676,-2.5732,-2.5681,-2.5946,-2.5855,-2.5871,-2.5877,-2.5951,-2.5983,-2.6011,-2.564,-2.5638,-2.5637,0,0,-2.5562,-2.5566,-2.5663,-2.5676,-2.5692,-2.567,-2.5693,-2.5694,-2.5689,-2.5789,-2.5717,-2.5775,-2.587,-2.5888,-2.5909,-2.6124,-2.6067,-2.6141,-2.627,-2.6348,-2.6374,-2.6397,-2.6477,-2.6506,-2.6158,-2.6158,-2.6158,0,-2.5678,-2.5773,-2.572,-2.58,-2.5825,-2.5737,-2.5837,-2.5851,-2.5884,-2.5905,-2.5847,-2.5966,-2.5972,-2.6104,-2.6156,-2.6175,-2.6203,-2.6141,-2.6374,-2.6397,-2.6418,-2.6493,-2.6523,-2.6167,-2.6166,-2.6165,-2.6164,0,-2.5916,-2.5983,-2.6059,-2.6092,-2.6126,-2.6215,-2.6178,-2.6219,-2.6181,-2.6166,-2.627,-2.6275,-2.6325,-2.6353,-2.6316,-2.648,-2.6448,-2.6383,-2.6281,-2.646,-2.653,-2.6558,-2.618,-2.6177,-2.6174,-2.6172,0,0,-2.6211,-2.6214,-2.6243,-2.6258,-2.627,-2.6322,-2.6408,-2.6456,-2.6494,-2.6519,-2.6592,-2.6675,-2.6615,-2.664,-2.6604,-2.6672,-2.6846,-2.6599,-2.6598,-2.6647,-2.7031,-2.7082,-2.7116,-2.6807,-2.6812,-2.6816,-2.703,0,-2.6416,-2.6562,-2.6518,-2.6666,-2.6729,-2.6646,-2.6721,-2.6738,-2.6727,-2.678,-2.6766,-2.6828,-2.6742,-2.6757,-2.6821,-2.6811,-2.6922,-2.6794,-2.6877,-2.6881,-2.6878,-2.7152,-2.7206,-2.7407,-2.7057,-2.7061,-2.7064,0,-2.6675,-2.671,-2.6864,-2.6868,-2.6892,-2.6961,-2.7002,-2.7053,-2.7071,-2.7058,-2.7086,-2.7037,-2.7124,-2.7019,-2.714,-2.7054,-2.7085,-2.7086,-2.7093,-2.7101,-2.6986,-2.7171,-2.747,-2.7502,-2.7106,-2.7103,-2.71,0,-2.6879,-2.6965,-2.7069,-2.7084,-2.7089,-2.714,-2.7145,-2.7157,-2.7189,-2.7226,-2.7247,-2.7293,-2.732,-2.7358,-2.7324,-2.725,-2.7452,-2.7343,-2.7446,-2.7447,-2.7494,-2.7492,-2.7806,-2.7509,-2.7509,-2.7508,-2.7508,0,-2.7114,-2.7213,-2.7161,-2.7225,-2.7334,-2.7283,-2.7392,-2.7388,-2.74,-2.7464,-2.7394,-2.7456,-2.7405,-2.7464,-2.7437,-2.7543,-2.7555,-2.7549,-2.7541,-2.7557,-2.7558,-2.7578,-2.7565,-2.7516,-2.7514,-2.7513,-2.7511,0,-2.7362,-2.733,-2.7439,-2.7435,-2.7437,-2.7517,-2.7515,-2.7576,-2.7558,-2.764,-2.7657,-2.7631,-2.7696,-2.7664,-2.7732,-2.7714,-2.7852,-2.7824,-2.7846,-2.784,-2.7945,-2.7937,-2.8285,-2.833,-2.8002,-2.8005,-2.8008,0,-2.7516,-2.7589,-2.7594,-2.7631,-2.764,-2.7701,-2.7733,-2.7686,-2.7723,-2.775,-2.7809,-2.7867,-2.7912,-2.8019,-2.8008,-2.806,-2.8035,-2.8153,-2.8043,-2.8057,-2.8041,-2.8038,-2.8047,-2.8177,-2.8181,-2.8184,-2.8186,0,-2.7793,-2.7774,-2.7823,-2.7867,-2.7908,-2.7941,-2.7968,-2.8003,-2.7956,-2.8002,-2.8067,-2.8102,-2.8171,-2.8231,-2.8277,-2.8283,-2.823,-2.8221,-2.8248,-2.8266,-2.8277,-2.8276,-2.791,-2.8214,-2.8211,-2.8209,-2.8208,-2.8206,-2.8,-2.8063,-2.8076,-2.8134,-2.8149,-2.8177,-2.8234,-2.8224,-2.8277,-2.8329,-2.8297,-2.8375,-2.8393,-2.8448,-2.8463,-2.8524,-2.8477,-2.8516,-2.8526,-2.8537,-2.8553,-2.8265,-2.8532,-2.8531,-2.853,-2.8529,-2.8529,0,-2.8277,-2.8281,-2.8334,-2.8375,-2.8421,-2.8362,-2.839,-2.8433,-2.8501,-2.8522,-2.8567,-2.8643,-2.8702,-2.8695,-2.8749,-2.8799,-2.8776,-2.8816,-2.8813,-2.8816,-2.859,-2.8562,-2.8834,-2.8834,-2.8834,-2.8834,-2.8834,-2.8834,-2.8426,-2.8531,-2.8514,-2.8626,-2.8629,-2.8703,-2.8725,-2.875,-2.8767,-2.8855,-2.8902,-2.8897,-2.8907,-2.8962,-2.9014,-2.901,-2.9035,-2.9085,-2.9073,-2.8862,-2.8832,-2.8803,-2.8777,-2.909,-2.909,-2.9295,-2.9297,-2.9298]},{"header":{"parameterUnit":"m.s-1","parameterCategory":1,"la1":30.2991,"la2":30.254,"lo1":-89.0895,"lo2":-89.0444,"dy":0.0017,"dx":0.0017,"nx":28,"ny":28,"refTime":"2024-09-01T03:00:00:Z","depth":0,"parameterNumber":3,"parameterNumberName":"V-component_of_WINDS"},"data":[0,0,0,0,0,0,0,0,0,0,0,0,0,0,0,0,0,0,0,0,0,0,0,0,0,0,0,0,0,0,0,0,0,0,0,0,0,0,0,0,0,0,0,0,0,0,0,0,0,0,0,0,0,0,0,0,0,0,-1.9538,-1.9538,0,-1.9493,-1.9492,-1.9492,-1.9444,-1.9443,-1.9442,-1.9442,-1.9396,-1.9395,-1.9394,0,0,0,0,0,0,0,0,0,0,0,0,0,-1.9582,-1.9582,-1.9538,-1.9538,-1.9537,-1.9493,-1.9492,-1.9492,-1.9444,-1.9443,-1.9442,-1.9441,-1.9396,-1.9395,-1.9394,0,0,0,0,0,0,0,0,0,0,0,0,0,-1.9553,-1.9581,-1.9538,-1.9508,-1.9505,-1.9493,-1.9492,-1.9491,-1.9444,-1.9443,-1.9442,-1.9441,-1.9396,-1.9395,-1.9394,-1.9409,0,0,-1.9391,-1.9391,0,0,0,0,0,0,0,0,-1.9554,-1.9551,-1.9513,-1.951,-1.9506,-1.9473,-1.9491,-1.9464,-1.9444,-1.9467,-1.9442,-1.9441,-1.9422,-1.9419,-1.9413,-1.9407,-1.9405,-1.9391,-1.9391,-1.939,-1.939,0,0,0,0,0,0,0,-1.9557,-1.9553,-1.952,-1.9512,-1.9508,-1.9496,-1.9491,-1.9485,-1.9451,-1.9465,-1.9461,-1.9457,-1.942,-1.9414,-1.9411,-1.9404,-1.9391,-1.9391,-1.939,-1.939,-1.9405,-1.9406,0,0,0,0,0,0,-1.9563,-1.9555,-1.9522,-1.9519,-1.9528,-1.9496,-1.949,-1.9485,-1.9451,-1.9445,-1.9458,-1.9455,-1.9416,-1.9412,-1.941,-1.9423,-1.939,-1.939,-1.9389,-1.9404,-1.9406,-1.9407,0,0,0,0,0,0,-1.9564,-1.9561,-1.9523,-1.9536,-1.953,-1.9496,-1.9491,-1.9484,-1.9478,-1.9445,-1.9439,-1.9457,-1.9415,-1.9411,-1.9409,-1.942,-1.9389,-1.9388,-1.9403,-1.9405,-1.9406,-1.945,0,0,0,0,0,0,-1.9566,-1.9561,-1.9567,-1.9536,-1.953,-1.9524,-1.9491,-1.9484,-1.9476,-1.9472,-1.9443,-1.9438,-1.9414,-1.941,-1.9408,-1.9419,-1.9388,-1.9402,-1.9404,-1.9406,-1.9448,-1.9453,-1.9458,0,0,0,0,0,-1.9568,-1.9582,-1.9568,-1.9564,-1.9536,-1.9525,-1.9521,-1.9493,-1.9478,-1.9482,-1.9461,-1.9438,-1.942,-1.9411,-1.9407,-1.9418,-1.9401,-1.9403,-1.9406,-1.9445,-1.9452,-1.9458,0,0,0,0,0,0,-1.9615,-1.9577,-1.9561,-1.9566,-1.9549,-1.9517,-1.9522,-1.9502,-1.9489,-1.9485,-1.9451,-1.9445,-1.9447,-1.9432,-1.9423,-1.9429,-1.9407,-1.9409,-1.9439,-1.9445,-1.945,-1.9453,-1.9387,0,0,0,0,0,-1.9626,-1.9621,-1.9588,-1.9595,-1.9587,-1.9556,-1.9551,-1.953,-1.9512,-1.9504,-1.9483,-1.9465,-1.9455,-1.9449,-1.9438,-1.9446,-1.9438,-1.9451,-1.9456,-1.946,-1.9462,-1.9463,-1.9468,-1.9414,-1.9414,-1.9414,0,0,-1.9649,-1.9628,-1.9626,-1.9604,-1.9588,-1.9583,-1.9551,-1.9547,-1.9542,-1.9504,-1.95,-1.9484,-1.9462,-1.9464,-1.9464,-1.9452,-1.9475,-1.9463,-1.9467,-1.9466,-1.9465,-1.947,-1.9475,-1.9415,-1.9415,-1.9415,0,0,-1.9687,-1.9671,-1.9674,-1.9659,-1.9636,-1.9615,-1.9616,-1.9587,-1.9574,-1.957,-1.9541,-1.9534,-1.9518,-1.9503,-1.9493,-1.9524,-1.9502,-1.9522,-1.9548,-1.9549,-1.9553,-1.9556,-1.9566,-1.957,-1.9524,-1.9524,-1.9524,0,-1.9718,-1.9708,-1.9679,-1.9676,-1.9666,-1.9631,-1.9634,-1.962,-1.9595,-1.9589,-1.9576,-1.9553,-1.9536,-1.9534,-1.9541,-1.9535,-1.9534,-1.9524,-1.9555,-1.9558,-1.9561,-1.9569,-1.9573,-1.9526,-1.9526,-1.9525,-1.9525,0,-1.9747,-1.9741,-1.9746,-1.9722,-1.9713,-1.9713,-1.9682,-1.9677,-1.9658,-1.9638,-1.9633,-1.9611,-1.9594,-1.9592,-1.9574,-1.9586,-1.9579,-1.9561,-1.9538,-1.9569,-1.9576,-1.9579,-1.9529,-1.9529,-1.9528,-1.9527,0,0,-1.9814,-1.9772,-1.9774,-1.9762,-1.9733,-1.9728,-1.9725,-1.9708,-1.9704,-1.9687,-1.9683,-1.967,-1.9652,-1.9641,-1.962,-1.9622,-1.9645,-1.9603,-1.9602,-1.961,-1.9655,-1.9668,-1.9673,-1.9631,-1.9631,-1.9632,-1.9657,0,-1.9845,-1.9839,-1.9812,-1.9814,-1.9806,-1.9773,-1.977,-1.9752,-1.9733,-1.9724,-1.9703,-1.9694,-1.9672,-1.9665,-1.9665,-1.9642,-1.9653,-1.964,-1.9626,-1.9625,-1.9631,-1.9677,-1.969,-1.9715,-1.9659,-1.966,-1.966,0,-1.9882,-1.9867,-1.9868,-1.9837,-1.9833,-1.9832,-1.9813,-1.9806,-1.9784,-1.977,-1.9757,-1.9733,-1.9728,-1.9707,-1.9698,-1.969,-1.9682,-1.967,-1.967,-1.9667,-1.9644,-1.9673,-1.9723,-1.9726,-1.9665,-1.9664,-1.9664,0,-1.9928,-1.9908,-1.9906,-1.9896,-1.9862,-1.9861,-1.9847,-1.9824,-1.9815,-1.9799,-1.9792,-1.9776,-1.9766,-1.9754,-1.9726,-1.9714,-1.9719,-1.9697,-1.9707,-1.9707,-1.9709,-1.9709,-1.9756,-1.9706,-1.9706,-1.9706,-1.9706,0,-1.9966,-1.9967,-1.9926,-1.9924,-1.9924,-1.9893,-1.9893,-1.9876,-1.9855,-1.9849,-1.9819,-1.9813,-1.9777,-1.9767,-1.9746,-1.974,-1.9737,-1.9725,-1.9719,-1.9727,-1.9728,-1.972,-1.9717,-1.9707,-1.9707,-1.9707,-1.9707,0,-2.0017,-1.999,-1.9984,-1.9952,-1.9944,-1.9945,-1.9916,-1.9913,-1.9892,-1.9884,-1.9881,-1.9848,-1.9834,-1.9805,-1.9785,-1.977,-1.9769,-1.9759,-1.9777,-1.9772,-1.9783,-1.9782,-1.9827,-1.983,-1.978,-1.978,-1.9781,0,-2.0042,-2.0042,-2.001,-2.0003,-1.999,-1.998,-1.997,-1.9939,-1.993,-1.9904,-1.9903,-1.9888,-1.9873,-1.9853,-1.9827,-1.981,-1.9798,-1.9815,-1.9796,-1.9803,-1.9797,-1.9796,-1.9795,-1.9819,-1.982,-1.9821,-1.9821,0,-2.0089,-2.0075,-2.0063,-2.0045,-2.0035,-2.0019,-2.0002,-1.9999,-1.9963,-1.9954,-1.994,-1.9929,-1.9907,-1.9891,-1.987,-1.9854,-1.9831,-1.9827,-1.9828,-1.9836,-1.9845,-1.9839,-1.9787,-1.9826,-1.9826,-1.9825,-1.9825,-1.9825,-2.0127,-2.0125,-2.0101,-2.0088,-2.0071,-2.0056,-2.0051,-2.0029,-2.0017,-1.9996,-1.9978,-1.9965,-1.9941,-1.9911,-1.9896,-1.9885,-1.9874,-1.9876,-1.9876,-1.9877,-1.9879,-1.9848,-1.9881,-1.9881,-1.9881,-1.9881,-1.988,0,-2.0171,-2.0153,-2.0142,-2.0118,-2.0108,-2.0088,-2.0067,-2.0059,-2.0048,-2.0028,-2.0015,-1.9997,-1.9981,-1.9954,-1.9935,-1.9931,-1.992,-1.9927,-1.9926,-1.9923,-1.9891,-1.9891,-1.9936,-1.9936,-1.9936,-1.9936,-1.9936,-1.9936,-2.0192,-2.0187,-2.017,-2.0156,-2.0139,-2.0126,-2.0116,-2.0101,-2.0084,-2.0066,-2.0053,-2.0035,-2.0011,-1.9991,-1.9974,-1.9967,-1.996,-1.9971,-1.9959,-1.993,-1.9925,-1.992,-1.992,-1.997,-1.997,-1.9991,-1.9991,-1.9992]}]]